This is the latest recevied weather packets stored in our database for station/object K9APR. If no packets are shown the sender has not sent any weather packets the latest 10 day(s).
| Time | Temp. | Humidity | Pressure | Rain* | Wind** | Luminosity | Snow |
|---|---|---|---|---|---|---|---|
| 1777677963 | 9.44° C | 61% | 1016.7 hPa | 0 mm | - | - | - |
| 1777677423 | 9.44° C | 60% | 1016.5 hPa | 0 mm | - | - | - |
| 1777676882 | 10° C | 61% | 1016.5 hPa | 0 mm | - | - | - |
| 1777676342 | 10° C | 62% | 1016.5 hPa | 0 mm | - | - | - |
| 1777675802 | 10.56° C | 60% | 1016.4 hPa | 0 mm | - | - | - |
| 1777675262 | 10.56° C | 60% | 1016.4 hPa | 0 mm | - | - | - |
| 1777674722 | 10.56° C | 60% | 1016.5 hPa | 0 mm | - | - | - |
| 1777674183 | 10.56° C | 61% | 1016.4 hPa | 0 mm | - | - | - |
| 1777673644 | 10° C | 61% | 1016.4 hPa | 0 mm | - | - | - |
| 1777673103 | 10.56° C | 60% | 1016.4 hPa | 0 mm | - | - | - |
| 1777672562 | 10.56° C | 61% | 1016.5 hPa | 0 mm | - | - | - |
| 1777672023 | 10.56° C | 60% | 1016.5 hPa | 0 mm | - | - | - |
| 1777671483 | 11.11° C | 59% | 1016.6 hPa | 0 mm | - | - | - |
| 1777670943 | 10.56° C | 60% | 1016.6 hPa | 0 mm | - | - | - |
| 1777670401 | 9.44° C | 64% | 1016.5 hPa | 0 mm | - | - | - |
| 1777669863 | 10° C | 63% | 1016.4 hPa | 0 mm | - | - | - |
| 1777669321 | 10° C | 60% | 1016.4 hPa | 0 mm | - | - | - |
| 1777668782 | 10.56° C | 64% | 1016.5 hPa | 0 mm | - | - | - |
| 1777668243 | 10° C | 64% | 1016.5 hPa | 0 mm | - | - | - |
| 1777667702 | 9.44° C | 62% | 1016.6 hPa | 0 mm | - | - | - |
| 1777667161 | 10° C | 63% | 1016.7 hPa | 0 mm | - | - | - |
| 1777666623 | 10.56° C | 61% | 1016.6 hPa | 0 mm | - | - | - |
| 1777666082 | 10.56° C | 59% | 1016.7 hPa | 0 mm | - | - | - |
| 1777665541 | 10.56° C | 65% | 1016.7 hPa | 0 mm | - | - | - |
| 1777665002 | 10° C | 64% | 1016.6 hPa | 0 mm | - | - | - |
* Rain latest hour (hover to see other rain measurements)
** Current wind speed in m/s (hover to see current wind gust speed)